Zurück zum Katalog

STARLINK-30290

AktivKommunikationVLEO
NORAD 57858·PAYLOAD·🇺🇸 United States

Gestartet Sep 12, 2023 von Vandenberg Space Force Base

Loading…

Nächste Überflüge (nächste 24 Stunden)

TLE

AktuellSource: CelesTrak SupGP

Epoche: Sep 14, 2026, 20:58 UTC

1 57858C 23141U   26257.87409722 -.00046636  00000+0 -13781-2 0  2570
2 57858  53.1569 123.8448 0001332  88.7312 308.8793 15.34409840    19

Verfolge STARLINK-30290 in Echtzeit mit AllMySat

Download on the App Store